#timestamp,LO_Frequency,Hit,StdDev 
1606744815.8,286047002.6,N
1606744835.7,286047002.2,N
1606744855.5,286047001.3,N
1606744875.3,286047000.1,N
1606744895.2,286047002.5,N
1606744915.0,286047000.2,N
1606744915.9,286047000.2,N
1606744935.8,286047002.0,N
1606744955.6,286046999.9,N
1606744975.4,286047000.7,N
1606744995.3,286047000.1,N
1606745015.1,286046999.9,N
1606745035.8,286047001.1,N
1606745055.7,286047001.2,N
1606745075.5,286046999.5,N
1606745095.4,286046997.6,N
1606745115.2,286046996.8,N
1606745135.0,286046997.0,N
1606745135.9,286046997.0,N
1606745155.8,286047001.2,N
1606745175.6,286047000.9,N
1606745195.4,286047001.2,N
1606745215.3,286046998.4,N
1606745235.1,286046999.1,N
1606745255.9,286046997.8,N
1606745275.7,286046995.4,N
1606745295.5,286046995.5,N
1606745315.4,286046995.7,N
1606745335.2,286046994.7,N
1606745355.0,286046992.2,Y
1606745355.9,286046992.2,P
1606745375.8,286046997.6,N
1606745395.6,286046998.6,N
1606745415.5,286046999.9,N
1606745435.3,286047003.7,N
1606745455.1,286047004.6,N
1606745475.9,286047007.2,N
1606745495.7,286047006.5,N
1606745515.5,286047005.1,N
1606745535.4,286047007.0,N
1606745555.2,286047009.2,N
1606745575.0,286047009.1,N
1606745576.0,286047009.1,N
1606745595.8,286047009.0,N
1606745615.6,286047006.9,N
1606745635.5,286047005.8,N
1606745655.3,286047001.8,N
1606745675.1,286046999.8,N
1606745695.9,286047000.7,N
1606745715.7,286047001.1,N
1606745735.5,286047001.1,N
1606745755.4,286047000.5,N
1606745775.2,286047000.9,N
1606745795.1,286046998.1,N
1606745796.0,286046998.1,N
1606745815.8,286047000.9,N
1606745835.6,286047000.3,N
1606745855.5,286046998.1,N
1606745875.3,286047000.6,N
1606745895.1,286047000.6,N
1606745915.9,286047000.6,N
1606745935.7,286046998.1,N
1606745955.6,286047001.2,N
1606745975.4,286046999.0,N
1606745995.2,286046997.2,N
1606746015.1,286046995.6,N
1606746016.0,286046995.6,N
1606746035.8,286046995.7,N
1606746055.6,286046994.9,N
1606746075.5,286046999.5,N
1606746095.3,286046996.6,N
1606746115.2,286047000.2,N
1606746135.9,286046999.9,N
1606746155.7,286047002.4,N
1606746175.6,286046999.9,N
1606746195.4,286047001.2,N
1606746215.2,286047000.6,N
1606746235.1,286047000.7,N
1606746236.0,286047000.7,N
1606746255.8,286046998.1,N
1606746275.7,286046998.5,N
1606746295.5,286047000.8,N
1606746315.3,286047002.6,N
1606746335.2,286047001.8,N
1606746355.0,286047003.5,N
1606746355.9,286047003.5,N
1606746375.7,286047001.4,N
1606746395.6,286047006.0,N
1606746415.4,286047005.7,N
1606746435.3,286047005.7,N
1606746455.1,286047004.0,N
1606746456.0,286047004.0,N
1606746475.8,286047002.5,N
1606746495.7,286047000.1,N
1606746515.5,286047001.0,N
1606746535.3,286047000.8,N
1606746555.2,286047002.7,N
1606746575.0,286046999.9,N
1606746575.9,286046999.9,N
1606746595.8,286047000.0,N
1606746615.6,286047001.0,N
1606746635.4,286047000.8,N
1606746655.3,286047002.3,N
1606746675.1,286047002.8,N
1606746695.8,286047000.6,N
1606746715.7,286047002.0,N
1606746735.5,286047001.7,N
1606746755.4,286047003.2,N
1606746775.2,286047005.8,N
1606746795.0,286047003.1,N
1606746795.9,286047003.1,N
1606746815.8,286047004.2,N
1606746835.6,286047001.6,N
1606746855.4,286046999.8,N
1606746875.3,286047002.4,N
1606746895.1,286047002.3,N
1606746915.9,286047003.8,N
1606746935.7,286047003.1,N
1606746955.5,286047004.4,N
1606746975.4,286047005.3,Y
1606746995.2,286047003.7,P
1606747015.0,286047002.6,P
1606747015.9,286047002.6,P
1606747035.8,286047002.2,Y
1606747055.6,286046997.3,P
1606747075.5,286046999.6,N
1606747095.3,286046998.3,N
1606747115.1,286046997.0,N
1606747135.9,286046997.2,N
1606747155.7,286046997.8,N
1606747175.6,286046999.1,N
1606747195.4,286046996.7,N
1606747215.2,286046996.5,N
1606747235.1,286046999.4,N
1606747236.0,286046999.4,N
1606747255.8,286047000.0,N
1606747275.6,286047002.8,N
1606747295.5,286047000.1,N
1606747315.3,286047002.8,N
1606747335.2,286047000.2,N
1606747355.9,286046999.9,N
1606747375.7,286047000.8,N
1606747395.6,286047000.3,N
1606747415.4,286046998.5,N
1606747435.2,286047002.3,N
1606747455.1,286047002.1,N
1606747456.0,286047002.1,N
1606747475.8,286047000.1,N
1606747495.7,286047002.0,N
1606747515.5,286047001.6,N
1606747535.3,286047001.3,N
1606747555.2,286047002.8,N
1606747575.0,286047001.6,N
1606747575.9,286047001.6,N
1606747595.8,286047002.6,N
1606747615.6,286047004.3,N
1606747635.4,286047001.8,N
1606747655.3,286047003.7,N
1606747675.1,286047002.9,N
1606747695.8,286047003.0,N
1606747715.7,286047003.4,N
1606747735.5,286047005.5,N
1606747755.4,286047004.4,N
1606747775.2,286047002.0,N
1606747795.0,286047005.9,Y
1606747795.9,286047005.9,P
1606747815.8,286047003.5,N
1606747835.6,286047004.3,N
1606747855.4,286047004.4,Y
1606747875.3,286046998.1,P
1606747895.1,286047000.9,N
1606747915.9,286047000.8,N
1606747935.7,286047000.8,N
1606747955.5,286047000.6,N
1606747975.4,286047002.0,N
1606747995.2,286046999.7,N
1606748015.0,286047001.6,N
1606748016.0,286047001.6,N
1606748035.8,286047001.6,N
1606748055.6,286047000.9,N
1606748075.5,286047000.0,N
1606748095.3,286047002.3,N
1606748115.1,286047000.6,N
1606748135.9,286047000.8,N
1606748155.7,286047000.3,N
1606748175.6,286047000.9,N
1606748195.4,286047000.6,N
1606748215.2,286047000.5,N
1606748235.1,286047002.0,N
1606748236.0,286047002.0,N
1606748255.8,286047002.7,N
1606748275.6,286047000.0,N
1606748295.5,286046998.1,N
1606748315.3,286047002.8,N
1606748335.2,286047000.1,N
1606748355.9,286047003.8,N
1606748375.7,286047002.3,N
1606748395.6,286047001.5,N
